Location: Araquey
(29.9464°N, 81.3373°W)
Time: 15:36:32
(UTC+00:00)

Hubble Space Telescope - Visible Passes

Search period start: 20 September 2021 00:00
Search period end: 30 September 2021 00:00
Orbit: 535 x 539 km, 28.5° (Epoch: 19 September)

Date Brightness Start Highest point End Pass type
(mag) Time Alt. Az. Time Alt. Az. Time Alt. Az.
20 Sep 2.8 01:19:20 10° WSW 01:21:56 20° SW 01:21:56 20° SW visible
21 Sep 2.9 01:08:41 10° WSW 01:11:21 17° SSW 01:11:38 17° SSW visible
22 Sep 3.2 00:58:15 10° SW 01:00:14 13° SSW 01:01:24 12° S visible
